TimeMST,TemperatureF,Dew PointF,Humidity,Sea Level PressureIn,VisibilityMPH,Wind Direction,Wind SpeedMPH,Gust SpeedMPH,PrecipitationIn,Events,Conditions,WindDirDegrees,DateUTC
12:04 AM,23.0,23.0,100,29.66,10.0,Calm,Calm,-,N/A,,Overcast,0,2013-11-16 07:04:00
12:24 AM,23.0,23.0,100,29.66,10.0,Calm,Calm,-,N/A,,Overcast,0,2013-11-16 07:24:00
12:43 AM,23.0,21.2,93,29.66,7.0,Calm,Calm,-,N/A,,Overcast,0,2013-11-16 07:43:00
1:04 AM,23.0,21.2,93,29.66,10.0,Calm,Calm,-,N/A,,Overcast,0,2013-11-16 08:04:00
1:24 AM,23.0,21.2,93,29.66,10.0,Calm,Calm,-,N/A,,Overcast,0,2013-11-16 08:24:00
1:44 AM,23.0,21.2,93,29.65,10.0,Calm,Calm,-,N/A,,Overcast,0,2013-11-16 08:44:00
2:05 AM,23.0,21.2,93,29.66,10.0,Calm,Calm,-,N/A,,Overcast,0,2013-11-16 09:05:00
2:25 AM,23.0,21.2,93,29.66,10.0,Calm,Calm,-,N/A,,Overcast,0,2013-11-16 09:25:00
2:45 AM,21.2,19.4,93,29.66,10.0,Calm,Calm,-,N/A,,Mostly Cloudy,0,2013-11-16 09:45:00
3:05 AM,21.2,19.4,93,29.66,10.0,Calm,Calm,-,N/A,,Mostly Cloudy,0,2013-11-16 10:05:00
3:24 AM,21.2,19.4,93,29.66,7.0,Calm,Calm,-,N/A,Snow,Light Snow,0,2013-11-16 10:24:00
3:45 AM,21.2,19.4,93,29.66,5.0,Calm,Calm,-,N/A,Snow,Light Snow,0,2013-11-16 10:45:00
4:04 AM,21.2,19.4,93,29.65,7.0,Calm,Calm,-,N/A,Snow,Light Snow,0,2013-11-16 11:04:00
4:25 AM,21.2,19.4,93,29.66,4.0,Calm,Calm,-,N/A,Snow,Light Snow,0,2013-11-16 11:25:00
4:45 AM,21.2,19.4,93,29.66,7.0,Calm,Calm,-,N/A,Snow,Light Snow,0,2013-11-16 11:45:00
5:05 AM,21.2,19.4,93,29.66,4.0,Calm,Calm,-,N/A,Snow,Light Snow,0,2013-11-16 12:05:00
5:25 AM,21.2,19.4,93,29.65,10.0,Calm,Calm,-,N/A,,Mostly Cloudy,0,2013-11-16 12:25:00
5:45 AM,21.2,19.4,93,29.64,10.0,SSE,3.5,-,N/A,,Mostly Cloudy,160,2013-11-16 12:45:00
6:04 AM,23.0,21.2,93,29.64,10.0,Calm,Calm,-,N/A,,Overcast,0,2013-11-16 13:04:00
6:24 AM,23.0,21.2,93,29.62,10.0,Calm,Calm,-,N/A,,Overcast,0,2013-11-16 13:24:00
6:45 AM,23.0,21.2,93,29.62,10.0,Calm,Calm,-,N/A,,Overcast,0,2013-11-16 13:45:00
7:04 AM,24.8,23.0,93,29.60,4.0,South,4.6,-,N/A,,Overcast,190,2013-11-16 14:04:00
7:25 AM,24.8,23.0,93,29.60,3.0,SSW,4.6,-,N/A,,Overcast,200,2013-11-16 14:25:00
7:45 AM,24.8,23.0,93,29.61,2.5,SW,3.5,-,N/A,,Overcast,220,2013-11-16 14:45:00
8:05 AM,26.6,23.0,86,29.62,3.0,SSW,3.5,-,N/A,,Overcast,210,2013-11-16 15:05:00
8:25 AM,26.6,23.0,86,29.64,4.0,SSW,4.6,-,N/A,,Overcast,210,2013-11-16 15:25:00
8:45 AM,26.6,24.8,93,29.65,3.0,Calm,Calm,-,N/A,Snow,Light Snow,0,2013-11-16 15:45:00
9:04 AM,26.6,23.0,86,29.66,2.0,Calm,Calm,-,N/A,Snow,Light Snow,0,2013-11-16 16:04:00
9:25 AM,26.6,24.8,93,29.66,5.0,Calm,Calm,-,N/A,,Overcast,0,2013-11-16 16:25:00
9:45 AM,26.6,24.8,93,29.66,3.0,Calm,Calm,-,N/A,Snow,Light Snow,0,2013-11-16 16:45:00
10:05 AM,26.6,24.8,93,29.66,5.0,Calm,Calm,-,N/A,,Overcast,0,2013-11-16 17:05:00
10:25 AM,26.6,24.8,93,29.66,5.0,Calm,Calm,-,N/A,,Overcast,0,2013-11-16 17:25:00
10:45 AM,26.6,24.8,93,29.64,0.8,SSW,4.6,-,N/A,Snow,Light Snow,210,2013-11-16 17:45:00
11:05 AM,26.6,24.8,93,29.62,0.2,SW,3.5,-,N/A,Snow,Heavy Snow,220,2013-11-16 18:05:00
11:25 AM,26.6,24.8,93,29.61,0.2,SW,3.5,-,N/A,Snow,Heavy Snow,220,2013-11-16 18:25:00
11:45 AM,26.6,24.8,93,29.61,0.2,Calm,Calm,-,N/A,Snow,Heavy Snow,0,2013-11-16 18:45:00
12:04 PM,26.6,26.6,100,29.59,0.2,Calm,Calm,-,N/A,Snow,Heavy Snow,0,2013-11-16 19:04:00
12:24 PM,26.6,24.8,93,29.59,0.2,SW,3.5,-,N/A,Snow,Heavy Snow,220,2013-11-16 19:24:00
12:44 PM,26.6,26.6,100,29.57,0.2,SSW,4.6,-,N/A,Snow,Heavy Snow,210,2013-11-16 19:44:00
1:05 PM,26.6,24.8,93,29.56,0.2,SW,6.9,-,N/A,Snow,Heavy Snow,220,2013-11-16 20:05:00
1:25 PM,26.6,24.8,93,29.57,0.2,SSW,4.6,-,N/A,Snow,Heavy Snow,210,2013-11-16 20:25:00
1:45 PM,26.6,24.8,93,29.55,0.2,Calm,Calm,-,N/A,Snow,Heavy Snow,0,2013-11-16 20:45:00
2:05 PM,26.6,24.8,93,29.55,0.2,SW,6.9,-,N/A,Snow,Heavy Snow,220,2013-11-16 21:05:00
2:25 PM,26.6,24.8,93,29.53,0.2,SSW,3.5,-,N/A,Snow,Heavy Snow,210,2013-11-16 21:25:00
2:45 PM,26.6,24.8,93,29.54,0.2,SSW,3.5,-,N/A,Snow,Heavy Snow,210,2013-11-16 21:45:00
3:05 PM,26.6,24.8,93,29.54,0.5,SSW,3.5,-,N/A,Snow,Snow,200,2013-11-16 22:05:00
3:24 PM,26.6,24.8,93,29.54,0.2,SW,5.8,-,N/A,Snow,Snow,220,2013-11-16 22:24:00
3:45 PM,26.6,24.8,93,29.53,0.2,SSW,4.6,-,N/A,Snow,Snow,210,2013-11-16 22:45:00
4:05 PM,26.6,24.8,93,29.54,0.5,SSW,5.8,-,N/A,Snow,Snow,210,2013-11-16 23:05:00
4:25 PM,26.6,24.8,93,29.53,0.2,SW,4.6,-,N/A,Snow,Snow,220,2013-11-16 23:25:00
4:45 PM,26.6,24.8,93,29.55,0.5,SW,4.6,-,N/A,Snow,Light Snow,220,2013-11-16 23:45:00
5:05 PM,26.6,24.8,93,29.53,0.2,SW,8.1,-,N/A,Snow,Heavy Snow,220,2013-11-17 00:05:00
5:25 PM,26.6,24.8,93,29.54,0.2,SSW,4.6,-,N/A,Snow,Heavy Snow,210,2013-11-17 00:25:00
5:45 PM,26.6,24.8,93,29.56,0.2,Calm,Calm,-,N/A,Snow,Heavy Snow,0,2013-11-17 00:45:00
6:05 PM,26.6,24.8,93,29.57,0.2,SSW,3.5,-,N/A,Snow,Heavy Snow,200,2013-11-17 01:05:00
6:24 PM,26.6,24.8,93,29.55,0.2,SSW,4.6,-,N/A,Snow,Heavy Snow,200,2013-11-17 01:24:00
6:44 PM,26.6,23.0,86,29.57,0.2,SSW,3.5,-,N/A,Snow,Heavy Snow,210,2013-11-17 01:44:00
7:05 PM,26.6,23.0,86,29.60,-9999.0,Calm,Calm,-,N/A,,Overcast,0,2013-11-17 02:05:00
7:25 PM,26.6,23.0,86,29.60,-9999.0,SSW,4.6,-,N/A,,Overcast,200,2013-11-17 02:25:00
7:45 PM,24.8,23.0,93,29.60,-9999.0,SW,4.6,-,N/A,,Overcast,220,2013-11-17 02:45:00
8:05 PM,23.0,23.0,100,29.61,-9999.0,SSW,3.5,-,N/A,,Overcast,200,2013-11-17 03:05:00
8:25 PM,23.0,23.0,100,29.62,-9999.0,SW,3.5,-,N/A,,Overcast,230,2013-11-17 03:25:00
8:45 PM,23.0,23.0,100,29.64,-9999.0,SW,4.6,-,N/A,,Overcast,220,2013-11-17 03:45:00
9:05 PM,23.0,23.0,100,29.65,-9999.0,SW,3.5,-,N/A,,Overcast,230,2013-11-17 04:05:00
9:25 PM,23.0,23.0,100,29.66,-9999.0,SW,3.5,-,N/A,,Overcast,230,2013-11-17 04:25:00
9:44 PM,23.0,21.2,93,29.66,-9999.0,SW,3.5,-,N/A,,Overcast,220,2013-11-17 04:44:00
10:05 PM,23.0,21.2,93,29.67,7.0,Calm,Calm,-,N/A,,Overcast,0,2013-11-17 05:05:00
10:25 PM,23.0,21.2,93,29.66,5.0,SE,3.5,-,N/A,,Overcast,130,2013-11-17 05:25:00
10:45 PM,23.0,21.2,93,29.68,7.0,SW,3.5,-,N/A,,Overcast,220,2013-11-17 05:45:00
11:05 PM,23.0,21.2,93,29.69,7.0,SW,3.5,-,N/A,,Overcast,230,2013-11-17 06:05:00
11:25 PM,23.0,21.2,93,29.69,10.0,Calm,Calm,-,N/A,,Overcast,0,2013-11-17 06:25:00
11:44 PM,23.0,21.2,93,29.69,10.0,SSW,3.5,-,N/A,,Overcast,200,2013-11-17 06:44:00